Barking Sands, HI

5:12 AM HST on June 23, 2017 (GMT -1000)
Barking Sands PMRF

Weather History for PHBK - December, 2012

Change the Weather History Date:

Saturday, December 8, 2012

  Actual Average Record
Temperature  
Mean Temperature 76 °F -  
Max Temperature 80 °F 83 °F 88 °F (1972)
Min Temperature 72 °F 64 °F 59 °F (1950)
Cooling Degree Days 11    
Growing Degree Days 26 (Base 50)    
Moisture  
Dew Point 71 °F    
Average Humidity 86    
Maximum Humidity 100    
Minimum Humidity 59    
Precipitation  
Precipitation 0.00 in - - ()
Sea Level Pressure  
Sea Level Pressure 29.94 in    
Wind  
Wind Speed 4 mph (NNW)    
Max Wind Speed 12 mph    
Max Gust Speed -    
Visibility 10 miles    
Events      
Averages and records for this station are not official NWS values.
T = Trace of Precipitation, MM = Missing Value Source: NWS Daily Summary

Daily Weather History Graph

Daily Weather History Graph

Search for Another Location

Airport or City:

Trip Planner

Search our weather history database for the weather conditions in past years. The results will help you decide how hot, cold, wet, or windy it might be!

Date:

Astronomy

Dec. 08, 2012 Rise Set
Actual Time 7:06 AM HST 5:56 PM HST
Civil Twilight 6:42 AM HST 6:20 PM HST
Nautical Twilight 6:14 AM HST 6:48 PM HST
Astronomical Twilight 5:47 AM HST 7:15 PM HST
Moon 2:12 AM HST (12/8) 2:08 PM HST (12/8)
Length of Visible Light 11h 38m
Length of Day
10h 49m
Waning Crescent, 26% of the Moon is Illuminated
Dec 8
Waning Crescent
Dec 12
New
Dec 19
First Quarter
Dec 28
Full
Jan 4
Last Quarter

Hourly Weather History & Observations

Time (HST) Temp. Heat Index Dew Point Humidity Pressure Visibility Wind Dir Wind Speed Gust Speed Precip Events Conditions
12:56 AM 73.0 °F - 57.9 °F 59% 29.95 in 10.0 mi ENE 3.5 mph - N/A   Clear
1:56 AM 73.0 °F - 62.1 °F 68% 29.94 in 10.0 mi East 4.6 mph - N/A   Overcast
2:56 AM 73.0 °F - 66.9 °F 81% 29.93 in 10.0 mi ENE 3.5 mph - N/A   Overcast
3:56 AM 73.9 °F - 64.9 °F 73% 29.93 in 10.0 mi SSE 4.6 mph - N/A   Mostly Cloudy
4:04 AM 73.4 °F - 66.2 °F 78% 29.93 in 10.0 mi SE 4.6 mph - N/A   Overcast
4:24 AM 73.4 °F - 68.0 °F 83% 29.92 in 10.0 mi Calm Calm - N/A   Scattered Clouds
4:56 AM 72.0 °F - 66.0 °F 81% 29.93 in 10.0 mi Calm Calm - N/A   Clear
5:56 AM - - - N/A% 29.94 in 10.0 mi East 3.5 mph - N/A   Clear
6:56 AM - - - N/A% 29.94 in 10.0 mi East 4.6 mph - N/A   Clear
7:56 AM 72.0 °F - 72.0 °F 100% 29.96 in 10.0 mi Calm Calm - N/A   Clear
8:56 AM 77.0 °F - 75.9 °F 96% 29.98 in 10.0 mi Calm Calm - N/A   Clear
9:49 AM 78.8 °F - 75.2 °F 89% 29.97 in 10.0 mi WNW 3.5 mph - N/A   Mostly Cloudy
9:56 AM 77.0 °F - 75.9 °F 96% 29.98 in 10.0 mi NW 3.5 mph - N/A   Mostly Cloudy
10:14 AM 78.8 °F - 78.8 °F 100% 29.97 in 10.0 mi WSW 4.6 mph - N/A   Mostly Cloudy
10:22 AM 78.8 °F - 78.8 °F 100% 29.97 in 10.0 mi West 4.6 mph - N/A   Mostly Cloudy
10:33 AM 78.8 °F - 78.8 °F 100% 29.97 in 10.0 mi West 4.6 mph - N/A   Scattered Clouds
10:56 AM 79.0 °F - 78.1 °F 97% 29.97 in 10.0 mi West 5.8 mph - N/A   Clear
11:56 AM 79.0 °F - 78.1 °F 97% 29.96 in 10.0 mi NW 6.9 mph - N/A   Clear
12:56 PM 80.1 °F 87.4 °F 80.1 °F 100% 29.91 in 10.0 mi NNW 10.4 mph - N/A   Clear
1:56 PM 80.1 °F 87.4 °F 80.1 °F 100% 29.89 in 10.0 mi NNW 11.5 mph - N/A   Partly Cloudy
2:56 PM 80.1 °F - - N/A% 29.88 in 10.0 mi NW 6.9 mph - N/A   Scattered Clouds
3:56 PM 80.1 °F - - N/A% 29.88 in 10.0 mi West 10.4 mph - N/A   Scattered Clouds
4:56 PM 79.0 °F - 77.0 °F 94% 29.89 in 10.0 mi West 6.9 mph - N/A   Clear
5:56 PM 79.0 °F - - N/A% 29.92 in 10.0 mi West 3.5 mph - N/A   Overcast
6:56 PM 77.0 °F - - N/A% 29.94 in 10.0 mi North 3.5 mph - N/A   Mostly Cloudy
7:09 PM 77.0 °F - 69.8 °F 78% 29.94 in 10.0 mi Calm Calm - N/A   Overcast
7:36 PM 75.2 °F - 66.2 °F 73% 29.94 in 10.0 mi Calm Calm - N/A   Overcast
7:53 PM 75.2 °F - 66.2 °F 73% 29.95 in 10.0 mi Calm Calm - N/A   Mostly Cloudy
7:56 PM 75.0 °F - 68.0 °F 79% 29.96 in 10.0 mi Calm Calm - N/A   Mostly Cloudy
8:56 PM 73.0 °F - 66.9 °F 81% 29.97 in 10.0 mi Calm Calm - N/A   Partly Cloudy
9:56 PM 75.0 °F - - N/A% 29.98 in 10.0 mi East 6.9 mph - N/A   Overcast
10:56 PM 75.9 °F - 69.1 °F 79% 29.98 in 10.0 mi East 5.8 mph - N/A   Mostly Cloudy
11:56 PM 73.0 °F - - N/A% 29.96 in 10.0 mi SE 3.5 mph - N/A   Partly Cloudy